NIUSat (42766 NORAD) Tracking and Keplerian Element Data

This shows tracking and keplerian element data for the satellite.

Feedback or suggestion? Click here.




ElementValue
Catalog42766
NameNIUSat
Epoch Orbit7747
Epoch Day319.16366453
Epoch Year2018
RAAN15.3942
Inclination97.3829
Eccentricity0.0014311
Argument of Perigee253.9856
Mean Anonmoly105.9803
Mean Motion15.20692079
Decay Rate1.066E-05
L11 42766U 17036B 18319.16366453 .00001066 00000-0 51540-4 0 9990
L22 42766 97.3829 15.3942 0014311 253.9856 105.9803 15.20692079 77479

Live tracking and technical data element details for NIUSat (NORAD 42766). NIUSat can be tracked NOW for your location showing map with azimuth and elevation plus other details from your city location.

Track the satellite on the map from your city or location and see movement details for azimuth, elevation, latitude, longitude, range, height, and movement on the map or in text.







IsCatalogInMostPopularTable: catalog: 42766, numindb: 131
Update: records affected: 1



GetName: 42766 NIUSat

Hit Count: updated at: Tue, 20 Nov 2018 00:38:06 GMT